Погода в Миассе

Россия / Челябинская область     55°02′47″N   60°06′29″E
темп.,
°C
ветер,
м/с
пор.,
м/с
влажн.,
%
обл.,
%
осадки,
мм/ч
давл.,
гПа
погр.,
м
8 мая, сб
сб823:00+9зюз1154100 0.0 101910
02:00+8ююз1156100 0.0 101910
05:00+7юз1161100 0.0 101910
08:00+12зюз0150100 0.0 1018177
11:00+18в013592 0.0 1017890
14:00+19всв2328100 0.0 10162691
17:00+19с1229100 0.0 10152583
20:00+15вюв1149100 0.0 101610
9 мая, вс
вс923:00+11с1155100 0.0 101610
02:00+11с1156100 0.0 101610
05:00+10ссз1157100 0.0 101711
08:00+13ссв234599 0.0 1017217
11:00+18всв2231100 0.0 10162297
14:00+19в2330100 0.0 10162478
17:00+19ссв233392 0.0 10162193
20:00+15с22465 0.0 101712
10 мая, пн
пн1023:00+11с22565 0.0 101824
02:00+9ссв22685 0.0 102012
05:00+8св11755 0.0 102110
08:00+14сз125673 0.0 1022193
11:00+19всв34405 0.0 10221976
14:00+21в443451 0.0 10212537
17:00+19в2439100 0.0 1022753
20:00+16всв1152100 0.0 102316
11 мая, вт
вт1123:00+12ююв116194 0.0 102410
02:00+10юз1162100 0.0 102410
05:00+10ююз1161100 0.0 102410
08:00+14юз1252100 0.0 1024166
11:00+19сз4643100 0.0 10241163
14:00+19сз2543100 0.0 10241892
17:00+18сз575762 0.6 10241484
20:00+14сз48500 0.1 1025541
12 мая, ср
ср1223:00+10ссз23685 0.1 102764
02:00+8сз21755 0.0 102816
05:00+6зсз1180100 0.0 102910
08:00+11сз1259100 0.0 1029290
11:00+16с2338100 0.0 10281580
14:00+19ссз353353 0.0 10272146
17:00+19с3534100 0.0 10262318
20:00+15с3753100 0.0 1027338